Flag for U.S.A. Weather past 2 weeks in Passaic, New Jersey, U.S.A.

Now
34 °F

Sunny.


Feels Like: 28 °F
Forecast: 34 / 50 °F
Wind: 7 mph from Northwest

Location: Teterboro Airport

Current Time: Apr 1, 2015 at 9:15:17 AM

Latest Report: Apr 1, 2015 at 8:51 AM


Visibility: 10 mi

Pressure: 30.05 "Hg

Humidity: 52%

Dew point: 18 °F

Location of PassaicLocation

Historic Weather in Passaic — Graph

°F

Passaic temperature yesterday

Maximum temperature yesterday: 46 °F (at 11:51 AM)
Minimum temperature yesterday: 35 °F (at 7:51 PM)
Average temperature yesterday: 39 °F

Past Weeks' High & Low Weather Summary

 TemperatureHumidityPressure
High57 °F (Mar 26, 7:51 PM)93% (Mar 25, 10:51 PM)30.42 "Hg (Mar 25, 10:51 PM)
Low22 °F (Mar 23, 6:51 AM)18% (Mar 29, 5:51 PM)29.55 "Hg (Mar 17, 10:51 AM)
Average37 °F54%30.04 "Hg
* Reported Mar 17 7:51 AM — Apr 1 7:51 AM, Passaic, Weather by CustomWeather, © 2015

Note: Actual official high and low records may vary slightly from our data, if they occured in-between our weather recording intervals... More about our weather records

Advertising

Passaic weather history for previous 24 hours

 ConditionsComfort  
Time TempWeatherWind HumidityBarometerVisibility
7:51 AM
Wed, Apr 1
34 °FSunny.6 mph54%30.01 "Hg10 mi
6:51 AM32 °FClear.7 mph61%29.97 "Hg10 mi
5:51 AM32 °FClear.5 mph64%29.94 "Hg10 mi
4:51 AM33 °FClear.9 mph63%29.90 "Hg10 mi
3:51 AM33 °FClear.6 mph72%29.88 "Hg10 mi
2:51 AM34 °FClear.9 mph73%29.85 "Hg10 mi
1:51 AM35 °FClear.9 mph75%29.84 "Hg10 mi
12:51 AM35 °FClear.5 mph85%29.82 "Hg10 mi
11:58 PM
Tue, Mar 31
36 °FClear.5 mph87%29.81 "Hg10 mi
10:51 PM36 °FPassing clouds.5 mph89%29.81 "Hg6 mi
9:51 PM36 °FMostly cloudy.6 mph89%29.80 "Hg4 mi
8:58 PM36 °FLight snow. Low clouds.No wind87%29.79 "Hg1 mi
7:51 PM35 °FLight rain. Fog.5 mph88%29.77 "Hg4 mi
6:51 PM36 °FLight rain. Fog.5 mph89%29.76 "Hg5 mi
5:51 PM37 °FLight rain. Fog.6 mph89%29.76 "Hg6 mi
4:57 PM37 °FLight rain. Cloudy.7 mph87%29.76 "Hg9 mi
3:51 PM37 °FLight rain. Mostly cloudy.5 mph86%29.77 "Hg5 mi
2:58 PM37 °FLight rain. Low clouds.6 mph87%29.78 "Hg5 mi
1:51 PM39 °FLight rain. Mostly cloudy.7 mph70%29.79 "Hg5 mi
12:51 PM45 °FOvercast.6 mph42%29.79 "Hg10 mi
11:51 AM46 °FScattered clouds.9 mph38%29.83 "Hg10 mi
10:51 AM45 °FPassing clouds.5 mph40%29.85 "Hg10 mi
9:51 AM43 °FSunny.5 mph45%29.88 "Hg10 mi
Weather by CustomWeather, © 2015

See weather overviewHow to use our weather pages